Preview of NWS' New Version of Forecast
This preview is not operational and should not be used for support decisions.

Regional Weather Roundup (RWR)

Issued by National Weather Service (NWS)

                            
000
ASUS44 KJAN 200510
RWRMS 

MISSISSIPPI HOURLY WEATHER ROUNDUP
NATIONAL WEATHER SERVICE JACKSON MS
1200 AM CDT SAT APR 20 2019

NOTE: "FAIR: INDICATES FEW OR NO CLOUDS BELOW 12,000 FEET WITH NO
SIGNIFICANT WEATHER AND/OR OBSTRUCTIONS TO VISIBILITY.

MSZ001>002-007>008-010>013-018>021-025>028-034>036-200600-
NORTHWEST MISSISSIPPI
  
CITY           SKY/WX    TMP DP  RH WIND       PRES   REMARKS
BATESVILLE     CLOUDY    48  45  87 W8        29.82F                  
CLARKSDALE     CLOUDY    52  46  82 W12       29.85F                  
CLEVELAND      CLOUDY    50  45  81 SW9       29.88S                  
GREENWOOD      CLOUDY    50  43  77 SW5       29.86F                  
GREENVILLE     FAIR      51  44  77 SW8       29.89S                  
OLIVE BRANCH   CLOUDY    46  46 100 W8        29.78S                  
OXFORD         CLOUDY    45  43  93 SW3       29.82S                  
TUNICA           N/A     50  41  71 W13G20    29.84S                  
WINONA         CLOUDY    47  43  88 SW3       29.85F                  
$$

MSZ003>006-009-014>017-022>024-029>033-037>039-200600-
NORTHEAST MISSISSIPPI
  
CITY           SKY/WX    TMP DP  RH WIND       PRES   REMARKS
ABERDEEN       DRIZZLE   45  45 100 NW7G13    29.81S                  
COLUMBUS AFB   LGT RAIN  46  44  91 W12       29.80S                  
CORINTH        LGT RAIN  46  45  93 W13G23    29.73F                  
GOLDN TRIANGLE LGT RAIN  46  44  93 W7        29.82F                  
STARKVILLE     CLOUDY    45  43  93 SW3       29.84F                  
TUPELO         LGT RAIN  46  43  89 VRB6      29.78S                  
$$

MSZ040-058-200600-
CENTRAL MISSISSIPPI
  
CITY           SKY/WX    TMP DP  RH WIND       PRES   REMARKS
JACKSON INTL   CLOUDY    50  44  80 SW7       29.91S                  
JACKSON HAWKNS CLOUDY    50  46  86 W3        29.92S                  
MADISON        FAIR      48  45  87 CALM      29.90S                  
MERIDIAN KEY   CLOUDY    49  41  74 W5        29.88R                  
MERIDIAN NAS   MOCLDY    48  42  80 W9        29.87R                  
RAYMOND        FAIR      50  50 100 CALM      29.92S                  
VICKSBURG VKS  MOCLDY    50  50 100 CALM      29.93S                  
$$

MSZ059>079-200600-
SOUTH MISSISSIPPI
  
CITY           SKY/WX    TMP DP  RH WIND       PRES   REMARKS
HATTIESBURG    CLOUDY    52  43  71 W7        29.95R                  
LAUREL         CLOUDY    50  44  80 W7        29.91S                  
MCCOMB         MOCLDY    51  47  86 CALM      29.95S                  
NATCHEZ        MOCLDY    49  48  97 S3        29.95                   
PINE BELT      CLOUDY    49  45  86 VRB3      29.93F                  
$$

MSZ080>082-200600-
COASTAL MISSISSIPPI
  
CITY           SKY/WX    TMP DP  RH WIND       PRES   REMARKS
BILOXI         FAIR      53  46  76 NW7       29.96R                  
PASCAGOULA     FAIR      52  46  80 W5        29.96R                  
GULFPORT       MOCLDY    50  47  89 W7        29.96R                  
$$

LAZ007>009-015>016-023>026-200600-
NORTHEAST LOUISIANA
  
CITY           SKY/WX    TMP DP  RH WIND       PRES   REMARKS
BASTROP        FAIR      49  48  98 W5        29.94R                  
TALLULAH/VBURG FAIR      52  48  86 CALM      29.93S                  
VIDALIA        MOCLDY    54  50  87 SW6       29.94S                  
$$